INTELSAT 11 (IS-11) (32253 NORAD) Tracking and Keplerian Element Data

This shows tracking and keplerian element data for the satellite.

Feedback or suggestion? Click here.




ElementValue
Catalog32253
NameINTELSAT 11 (IS-11)
Epoch Orbit4104
Epoch Day349.80802747
Epoch Year2018
RAAN288.5647
Inclination0.017
Eccentricity0.0001394
Argument of Perigee317.4738
Mean Anonmoly86.2866
Mean Motion1.00271389
Decay Rate-2.55E-06
L11 32253U 07044B 18349.80802747 -.00000255 00000-0 00000+0 0 9993
L22 32253 0.0170 288.5647 0001394 317.4738 86.2866 1.00271389 41041

Live tracking and technical data element details for INTELSAT 11 (IS-11) (NORAD 32253). INTELSAT 11 (IS-11) can be tracked NOW for your location showing map with azimuth and elevation plus other details from your city location.

Track the satellite on the map from your city or location and see movement details for azimuth, elevation, latitude, longitude, range, height, and movement on the map or in text.







IsCatalogInMostPopularTable: catalog: 32253, numindb: 64
Update: records affected: 1



GetName: 32253 INTELSAT 11 (IS-11)

Hit Count: updated at: Sun, 16 Dec 2018 10:58:57 GMT